TimeEDT,TemperatureF,Dew PointF,Humidity,Sea Level PressureIn,VisibilityMPH,Wind Direction,Wind SpeedMPH,Gust SpeedMPH,PrecipitationIn,Events,Conditions,WindDirDegrees,DateUTC
12:28 AM,50.0,44.6,82,30.20,10.0,North,4.6,-,N/A,,Overcast,350,2012-10-09 04:28:00
12:29 AM,50.0,44.6,82,30.20,10.0,North,4.6,-,N/A,,Overcast,360,2012-10-09 04:29:00
12:31 AM,50.0,44.6,82,30.20,10.0,North,4.6,-,N/A,,Overcast,360,2012-10-09 04:31:00
12:49 AM,50.0,44.6,82,30.19,10.0,North,4.6,-,N/A,,Mostly Cloudy,10,2012-10-09 04:49:00
12:55 AM,50.2,44.6,81,30.18,10.0,North,6.9,-,N/A,,Mostly Cloudy,10,2012-10-09 04:55:00
1:51 AM,50.0,44.6,82,30.18,10.0,North,9.2,-,N/A,,Overcast,360,2012-10-09 05:51:00
1:55 AM,50.7,45.0,81,30.18,10.0,North,8.1,-,N/A,,Overcast,10,2012-10-09 05:55:00
2:28 AM,51.8,44.6,76,30.17,10.0,North,8.1,-,N/A,,Overcast,10,2012-10-09 06:28:00
2:33 AM,51.8,44.6,76,30.17,10.0,North,8.1,-,N/A,,Overcast,10,2012-10-09 06:33:00
2:39 AM,51.8,44.6,76,30.17,10.0,North,6.9,-,N/A,,Overcast,10,2012-10-09 06:39:00
2:43 AM,51.8,44.6,76,30.17,10.0,North,8.1,-,N/A,,Overcast,10,2012-10-09 06:43:00
2:55 AM,51.3,45.0,79,30.17,10.0,North,8.1,-,N/A,,Overcast,10,2012-10-09 06:55:00
3:55 AM,51.4,44.8,78,30.16,10.0,North,8.1,-,N/A,,Overcast,10,2012-10-09 07:55:00
4:55 AM,52.0,45.1,77,30.15,10.0,NNE,12.7,-,N/A,,Overcast,20,2012-10-09 08:55:00
5:55 AM,52.3,45.9,79,30.15,10.0,NNE,11.5,-,N/A,,Overcast,20,2012-10-09 09:55:00
6:26 AM,51.8,46.4,82,30.15,10.0,North,12.7,-,N/A,Rain,Light Rain,10,2012-10-09 10:26:00
6:55 AM,50.9,47.3,87,30.15,10.0,North,10.4,-,0.01,Rain,Light Rain,10,2012-10-09 10:55:00
7:00 AM,50.0,48.2,94,30.15,10.0,North,10.4,-,N/A,Rain,Light Rain,10,2012-10-09 11:00:00
7:25 AM,50.0,48.2,94,30.15,10.0,North,10.4,-,N/A,Rain,Light Rain,360,2012-10-09 11:25:00
7:31 AM,50.0,48.2,94,30.15,10.0,North,11.5,-,N/A,Rain,Light Rain,10,2012-10-09 11:31:00
7:32 AM,50.0,48.2,94,30.15,9.0,North,11.5,-,N/A,Rain,Light Rain,360,2012-10-09 11:32:00
7:55 AM,50.4,48.2,92,30.15,10.0,North,11.5,-,0.01,Rain,Light Rain,350,2012-10-09 11:55:00
8:02 AM,50.0,48.2,94,30.15,10.0,North,11.5,-,N/A,,Overcast,350,2012-10-09 12:02:00
8:28 AM,50.0,48.2,94,30.16,10.0,NNW,9.2,-,N/A,,Overcast,340,2012-10-09 12:28:00
8:41 AM,50.0,48.2,94,30.16,10.0,North,10.4,-,N/A,,Overcast,350,2012-10-09 12:41:00
8:51 AM,50.0,48.2,94,30.17,10.0,North,8.1,-,N/A,,Overcast,360,2012-10-09 12:51:00
8:53 AM,50.0,48.2,94,30.16,10.0,North,9.2,-,N/A,Rain,Light Rain,360,2012-10-09 12:53:00
8:55 AM,50.5,48.9,94,30.17,10.0,North,8.1,-,0.00,Rain,Light Rain,10,2012-10-09 12:55:00
9:14 AM,51.8,50.0,94,30.17,10.0,North,8.1,-,N/A,,Light Drizzle,10,2012-10-09 13:14:00
9:22 AM,51.8,50.0,94,30.17,10.0,North,9.2,-,N/A,,Overcast,10,2012-10-09 13:22:00
9:34 AM,51.8,50.0,94,30.17,10.0,North,10.4,-,N/A,,Overcast,10,2012-10-09 13:34:00
9:55 AM,52.2,50.5,94,30.17,10.0,North,9.2,-,0.00,,Overcast,360,2012-10-09 13:55:00
10:42 AM,55.4,51.8,88,30.16,10.0,NNE,11.5,-,N/A,,Overcast,30,2012-10-09 14:42:00
10:55 AM,55.4,52.3,89,30.16,10.0,NNE,11.5,-,N/A,,Overcast,30,2012-10-09 14:55:00
11:05 AM,55.4,51.8,88,30.16,10.0,NNE,11.5,-,N/A,Rain,Light Rain,20,2012-10-09 15:05:00
11:11 AM,55.4,51.8,88,30.16,10.0,North,10.4,-,N/A,,Overcast,10,2012-10-09 15:11:00
11:36 AM,57.2,53.6,88,30.15,10.0,North,9.2,-,N/A,Rain,Light Rain,360,2012-10-09 15:36:00
11:55 AM,56.1,52.9,89,30.15,10.0,NNE,10.4,-,0.00,,Light Drizzle,20,2012-10-09 15:55:00
11:57 AM,55.4,53.6,94,30.15,10.0,NNE,8.1,-,N/A,,Overcast,20,2012-10-09 15:57:00
12:09 PM,57.2,53.6,88,30.14,10.0,NNE,10.4,-,N/A,,Overcast,20,2012-10-09 16:09:00
12:55 PM,57.9,54.0,87,30.13,10.0,NE,11.5,-,0.00,,Overcast,40,2012-10-09 16:55:00
1:10 PM,59.0,53.6,82,30.12,10.0,NE,10.4,-,N/A,,Overcast,40,2012-10-09 17:10:00
1:55 PM,58.6,54.1,85,30.10,10.0,NNE,10.4,-,N/A,,Overcast,20,2012-10-09 17:55:00
2:47 PM,59.0,53.6,82,30.10,10.0,NNE,8.1,-,N/A,,Overcast,30,2012-10-09 18:47:00
2:55 PM,58.6,54.3,86,30.09,10.0,NE,12.7,-,N/A,,Overcast,50,2012-10-09 18:55:00
2:57 PM,59.0,53.6,82,30.10,10.0,NE,12.7,-,N/A,,Overcast,50,2012-10-09 18:57:00
3:03 PM,59.0,53.6,82,30.10,10.0,NE,12.7,-,N/A,,Overcast,40,2012-10-09 19:03:00
3:31 PM,59.0,55.4,88,30.09,10.0,NE,10.4,-,N/A,,Overcast,40,2012-10-09 19:31:00
3:55 PM,58.8,54.7,86,30.09,10.0,NE,12.7,-,N/A,,Overcast,40,2012-10-09 19:55:00
4:55 PM,58.3,55.2,90,30.09,10.0,NNE,9.2,-,N/A,,Overcast,30,2012-10-09 20:55:00
5:20 PM,57.2,55.4,94,30.09,10.0,NE,9.2,-,N/A,,Overcast,40,2012-10-09 21:20:00
5:29 PM,57.2,55.4,94,30.09,9.0,NNE,9.2,-,N/A,,Overcast,30,2012-10-09 21:29:00
5:55 PM,57.4,55.8,94,30.09,10.0,NNE,6.9,-,N/A,,Overcast,20,2012-10-09 21:55:00
6:09 PM,57.2,55.4,94,30.09,5.0,North,8.1,-,N/A,,Overcast,10,2012-10-09 22:09:00
6:26 PM,57.2,55.4,94,30.08,2.5,NNE,8.1,-,N/A,,Overcast,20,2012-10-09 22:26:00
6:31 PM,57.2,55.4,94,30.08,3.0,NNE,6.9,-,N/A,,Overcast,20,2012-10-09 22:31:00
6:34 PM,57.2,55.4,94,30.08,3.0,NNE,6.9,-,N/A,,Overcast,20,2012-10-09 22:34:00
6:40 PM,57.2,55.4,94,30.08,5.0,NNE,8.1,-,N/A,,Overcast,20,2012-10-09 22:40:00
6:43 PM,57.2,55.4,94,30.08,6.0,NNE,8.1,-,N/A,,Overcast,30,2012-10-09 22:43:00
6:44 PM,57.2,55.4,94,30.08,6.0,NNE,8.1,-,N/A,,Overcast,20,2012-10-09 22:44:00
6:45 PM,57.2,55.4,94,30.08,6.0,NNE,8.1,-,N/A,,Overcast,30,2012-10-09 22:45:00
6:49 PM,57.2,55.4,94,30.08,6.0,NNE,6.9,-,N/A,,Overcast,20,2012-10-09 22:49:00
6:51 PM,57.2,55.4,94,30.08,7.0,NNE,8.1,-,N/A,,Overcast,20,2012-10-09 22:51:00
6:53 PM,57.2,55.4,94,30.08,7.0,NNE,6.9,-,N/A,,Overcast,20,2012-10-09 22:53:00
6:55 PM,56.8,55.9,97,30.08,8.0,NNE,8.1,-,N/A,,Overcast,20,2012-10-09 22:55:00
7:00 PM,57.2,55.4,94,30.09,8.0,NNE,6.9,-,N/A,,Overcast,20,2012-10-09 23:00:00
7:11 PM,57.2,55.4,94,30.08,8.0,NNE,6.9,-,N/A,Rain,Light Rain,20,2012-10-09 23:11:00
7:20 PM,57.2,55.4,94,30.08,9.0,NNE,8.1,-,N/A,Rain,Light Rain,30,2012-10-09 23:20:00
7:22 PM,57.2,55.4,94,30.08,10.0,NNE,8.1,-,N/A,,Overcast,30,2012-10-09 23:22:00
7:55 PM,56.8,56.1,97,30.08,10.0,NNE,8.1,-,0.00,,Overcast,30,2012-10-09 23:55:00
8:55 PM,57.0,55.9,96,30.07,10.0,NNE,5.8,-,N/A,,Overcast,20,2012-10-10 00:55:00
9:18 PM,57.2,55.4,94,30.07,10.0,NNE,8.1,-,N/A,,Overcast,30,2012-10-10 01:18:00
9:25 PM,57.2,55.4,94,30.07,10.0,NE,6.9,-,N/A,,Overcast,40,2012-10-10 01:25:00
9:55 PM,57.0,55.9,96,30.07,10.0,NNE,6.9,-,N/A,,Overcast,20,2012-10-10 01:55:00
10:07 PM,57.2,55.4,94,30.07,10.0,NNE,6.9,-,N/A,Rain,Light Rain,30,2012-10-10 02:07:00
10:26 PM,57.2,55.4,94,30.06,7.0,NNE,6.9,-,N/A,,Overcast,30,2012-10-10 02:26:00
10:43 PM,57.2,55.4,94,30.06,9.0,NNE,6.9,-,N/A,,Overcast,20,2012-10-10 02:43:00
10:55 PM,57.0,56.1,97,30.06,10.0,NNE,6.9,-,0.00,,Overcast,20,2012-10-10 02:55:00
11:09 PM,57.2,55.4,94,30.05,8.0,NNE,6.9,-,N/A,Rain,Light Rain,20,2012-10-10 03:09:00
11:31 PM,57.2,55.4,94,30.04,7.0,NNE,8.1,-,N/A,Rain,Light Rain,30,2012-10-10 03:31:00
11:43 PM,57.2,57.2,100,30.04,8.0,NNE,5.8,-,N/A,,Overcast,20,2012-10-10 03:43:00
11:55 PM,57.2,56.7,98,30.04,10.0,North,5.8,-,0.00,,Overcast,10,2012-10-10 03:55:00